Location: Munkebjergskolens Observatorium
(55.3864°N, 10.3987°E)
Time: 04:50:25
(UTC+02:00)

QB50P2 - Pass Details

Date: 03 April 2023
Orbit: 581 x 596 km, 98.0° (Epoch: 31 May)

Event Time Altitude Azimuth Distance (km) Brightness Sun altitude
Rises 03:37:29 0° 13° (NNE) 2,841 ? -23.3°
Reaches altitude 10° 03:39:40 10° 12° (NNE) 1,932 ? -23.1°
Maximum altitude 03:43:50 70° 289° (WNW) 629 ? -22.7°
Enters shadow 03:43:52 70° 284° (WNW) 629 ? -22.7°
